Starlink 32486

operational
NORAD ID: 61854 Int'l Des: 2024-202 Owner: SPXS Country: US Constellation: starlink
LEOCIRCULAR

About Starlink 32486

Description loading...

Live Position

Loading 3D Globe...

Upcoming Passes

Altitude History

Altitude vs Time

uPlot chart will show altitude changes over time

Two-Line Element Set

1 61854U 24202K 25258.41089572 .00000353 00000-0 22346-4 0 9994
2 61854 43.0030 147.6457 0000815 284.3480 75.7281 15.27578289 48537
Epoch: Sep 15, 2025 • Age: 23 hours

Current Status

Altitude 488.8 km
Velocity 7.62 km/s
Sub-Earth Point -24.34°S, 136.11°W
Launch Date Nov 7, 2024
Age 0.8 years
Type internet

Technical Details

Classification Payload
Mass 730.00 kg
Dry Mass 700.00 kg
Total Mass 730.00 kg
Length 0.30 m
Diameter 4.10 m
Span 29.00 m
Shape Box + pan
Manufacturer SPXS
Bus Type Starlink V2M
Phase Status In Orbit
Owner/State SPXS/US

Large Constellations

Loading constellations...